Location: Harcigny
(49.7961°N, 3.9816°E)
Time: 05:49:36
(UTC+00:00)

Daily predictions for brighter satellites

Satellite Brightness Start Highest point End
(mag) Time Altitude Azimuth Time Altitude Azimuth Time Altitude Azimuth
Cosmos 1461 4.5 00:01:35 10° NW 00:03:30 28° NW 00:03:30 28° NW
Cosmos 1844 Rocket 4.4 00:02:22 10° NW 00:05:29 20° W 00:05:29 20° W
Lacrosse 4 Rocket 4.2 00:04:57 10° WNW 00:06:43 12° NNW 00:08:29 10° N
Cosmos 1943 Rocket 3.6 00:01:39 10° NNW 00:06:50 35° NE 00:10:24 18° ESE
SL-16 R/B 3.7 00:06:04 20° W 00:08:49 30° NW 00:13:47 10° NNE
ATLAS 5 CENTAUR R/B 3.6 00:06:39 10° NNW 00:10:39 30° NNE 00:15:27 10° E
RESURS DK-1 4.1 00:13:30 26° ENE 00:13:30 26° ENE 00:15:40 10° NE
Cosmos 972 Rocket 4.2 00:12:33 62° E 00:12:33 62° E 00:17:05 10° NNE
Okean 3 Rocket 4.4 00:11:19 10° N 00:15:30 44° ENE 00:15:30 44° ENE
Cosmos 1867 3.9 00:10:51 10° NW 00:15:27 56° W 00:15:27 56° W
NOSS 2-2 (D) 3.9 00:14:12 10° NW 00:18:12 70° NNE 00:18:12 70° NNE
USA 32 4.2 00:20:05 62° WNW 00:20:05 62° WNW 00:25:12 10° N
Cosmos 2344 4.0 00:20:26 10° NW 00:28:38 82° NE 00:39:54 10° SE
Tsikada Rocket 4.0 00:30:35 59° WSW 00:31:23 65° WNW 00:37:32 10° N
USA 215 4.0 00:28:11 10° ENE 00:34:03 34° SE 00:34:07 34° SE
Cosmos 1536 4.2 00:32:12 10° N 00:35:23 33° ENE 00:35:23 33° ENE
Lacrosse 5 3.0 00:35:37 20° WNW 00:38:42 42° NNW 00:43:35 10° ENE
Meteor 1-11 Rocket 4.4 00:35:31 10° N 00:40:54 48° ENE 00:42:35 37° ESE
NOSS 2-3 (C) 4.4 00:37:35 10° NW 00:43:11 79° SW 00:45:10 49° SSE
ATLAS 3B R/B 4.3 00:36:39 10° NW 00:43:52 40° NNE 00:51:09 10° E
NOSS 0 Rocket 4.0 00:45:55 56° SSE 00:46:43 60° ESE 00:52:46 10° NE
NOSS 2-3 (D) 4.4 00:42:40 10° NW 00:48:14 78° SW 00:50:19 48° SSE
NOSS 3-4 (A) 4.2 00:51:31 28° W 00:54:05 44° NNW 01:00:06 10° NE
NOSS 3-4 (C) 4.2 00:51:35 28° W 00:54:07 44° NNW 01:00:09 10° NE
Gbstr 26 Del rocket 3.2 00:57:32 70° NNE 00:57:32 70° NNE 01:01:19 10° ENE
H-2A R/B 3.9 00:54:22 10° NNW 00:57:31 21° WNW 00:57:39 21° WNW
Cosmos 2369 Rocket 4.4 00:55:03 10° NNW 00:59:32 24° NE 01:03:59 10° E
Cosmos 2237 Rocket 2.5 00:59:39 50° SE 01:00:23 54° ESE 01:05:56 10° NE
IDEFIX/ARIANE 42P 3.5 00:57:52 10° NNE 01:02:44 38° E 01:03:55 34° SE
Cosmos 1980 3.8 01:02:36 55° SSE 01:03:20 60° ESE 01:08:55 10° NE
NOSS 2-2 (C) 4.5 01:01:48 10° NW 01:04:40 41° WNW 01:04:40 41° WNW
CZ-2D R/B 3.3 01:03:41 10° NNE 01:08:36 34° E 01:10:23 28° SE
USA 267 3.4 01:03:43 10° ESE 01:10:13 76° NNE 01:16:45 10° WNW
Cosmos 1151 Rocket 4.4 01:10:36 28° ESE 01:11:24 30° E 01:15:12 10° NNE
USA 308 4.2 01:14:03 27° E 01:14:03 27° E 01:16:08 10° ENE
Cosmos 2360 Rocket 4.1 01:10:54 14° W 01:14:06 22° NW 01:18:27 10° N
COSMOS 2428 3.0 01:13:37 47° WSW 01:14:51 57° NW 01:20:29 10° NNE
Meteor 2-9 Rocket 4.3 01:10:11 10° N 01:15:38 68° ENE 01:17:36 40° SE
Cosmos 1743 Rocket 3.8 01:12:31 10° N 01:16:48 60° ENE 01:17:16 56° ESE
Meteor 2-6 Rocket 4.4 01:15:50 54° SW 01:16:57 65° WNW 01:22:48 10° N
Cosmos 1726 3.6 01:16:21 10° NNW 01:17:55 26° NNW 01:17:55 26° NNW
Resurs 1-4 Rocket 2.9 01:15:36 10° NNE 01:20:39 44° E 01:22:17 34° SE
Cosmos 2322 4.5 01:21:01 35° W 01:22:41 43° NW 01:28:10 10° NNE
Cosmos 2219 Rocket 3.6 01:23:12 22° W 01:25:28 29° NW 01:30:19 10° NNE
BREEZE-M DEB (TANK) 4.2 01:27:27 14° E 01:27:27 14° E 01:27:50 10° E
IRIDIUM 104 4.3 01:21:09 10° N 01:26:19 63° W 01:26:54 59° WSW
Cosmos 2221 4.0 01:26:50 25° WNW 01:26:50 25° WNW 01:30:12 10° NNW
Cosmos 2278 Rocket 2.6 01:27:21 10° NW 01:32:30 42° WSW 01:32:30 42° WSW
IRIDIUM 114 4.5 01:30:22 10° NNW 01:35:26 53° W 01:36:02 50° WSW
USA 290 3.8 01:36:20 10° N 01:39:21 34° ENE 01:40:16 28° E
COBE Rocket 4.0 01:37:25 10° NNE 01:42:02 61° E 01:43:15 45° SSE
Meteor 2-10 4.1 01:36:21 10° NNW 01:42:04 84° W 01:44:15 40° S
Cosmos 1420 Rocket 3.9 01:36:53 10° NNW 01:42:11 84° WSW 01:44:11 39° SSE
Cosmos 2333 Rocket 4.3 01:38:22 10° WNW 01:42:12 18° NW 01:46:04 10° N
Cosmos 1680 Rocket 3.6 01:42:34 47° S 01:44:02 72° ESE 01:49:21 10° NNE
ADEOS II 2.9 01:39:55 10° NNE 01:44:57 45° E 01:47:24 27° SSE
Cosmos 2195 Rocket 4.5 01:44:51 37° S 01:47:32 82° E 01:53:46 10° N
RESURS DK-1 3.6 01:49:06 28° WNW 01:49:43 29° NW 01:53:19 10° NNE
Meteor 1-28 Rocket 4.0 01:49:06 32° SE 01:50:23 47° ENE 01:53:55 10° N
Cosmos 1943 Rocket 2.3 01:45:19 10° NW 01:50:48 51° WSW 01:51:51 45° SW
Nadezhda 4 Rocket 4.0 01:50:48 41° SW 01:52:48 62° WNW 01:58:53 10° N
ATLAS 2AS CENTAUR R/B 3.0 01:49:36 34° S 01:52:53 62° SE 01:59:55 10° NE
ATLAS 5 CENTAUR R/B 1.9 01:50:06 10° NW 01:54:57 76° SW 02:01:01 10° SE
Cosmos 1408 Rocket 4.5 01:51:29 10° NNW 01:54:59 32° WNW 01:54:59 32° WNW
Cosmos 2056 Rocket 3.5 01:50:27 10° NNW 01:55:53 77° WSW 01:58:37 30° SSE
Cosmos 1428 Rocket 4.4 01:53:46 38° SSW 01:56:23 82° W 02:02:38 10° N
SL-16 R/B 2.8 01:54:58 29° SSE 01:57:29 48° ESE 02:02:55 10° NE
Sich 1 3.3 01:57:21 10° NNW 02:01:26 46° W 02:01:28 46° W
Cosmos 1340 Rocket 3.0 02:01:32 47° SSE 02:02:25 63° E 02:06:20 10° NNE
GP-B 3.0 01:58:14 10° N 02:02:40 89° WNW 02:03:57 46° S
CZ-2C R/B 2.5 02:00:14 33° S 02:02:41 75° WSW 02:08:00 10° NNW
Meteor 1-27 Rocket 3.7 02:01:02 40° SSW 02:03:04 70° WNW 02:08:41 10° N
GEOS 3 Rocket 3.5 01:59:43 10° SE 02:05:04 79° SW 02:10:24 10° NW
Okean 1 3.7 02:05:34 41° WNW 02:05:36 41° WNW 02:09:14 10° N
Cosmos 1624 Rocket 3.9 02:00:38 10° NNW 02:05:48 65° WSW 02:08:03 33° S
SL-16 R/B 2.6 02:00:26 10° SSE 02:06:32 81° ENE 02:12:49 10° NNW
ALOS 3.4 02:03:00 10° NNE 02:07:21 38° E 02:10:17 18° SSE
NPP 3.7 02:04:43 10° N 02:10:04 65° WNW 02:12:10 37° SW
Cosmos 1340 2.3 02:07:00 10° N 02:10:26 84° ENE 02:10:59 61° SSE
NOSS 3-1 (A) 4.2 02:03:29 10° NW 02:10:35 78° NE 02:19:19 10° SE
Cosmos 1536 4.5 02:08:35 10° NW 02:10:40 20° WNW 02:10:40 20° WNW
Cosmos 1805 2.9 02:09:00 10° NNW 02:12:43 77° W 02:13:21 58° SSW
Cosmos 1733 3.8 02:10:41 10° NNW 02:13:33 36° WNW 02:13:33 36° WNW
H-2A R/B 4.1 02:13:10 10° N 02:16:58 38° WNW 02:17:40 35° W
USA 215 3.2 02:10:59 10° ENE 02:17:34 89° NNW 02:21:28 27° WSW
Cosmos 1805 Rocket 4.4 02:14:11 10° NNW 02:18:02 32° W 02:18:06 32° W
Intercosmos 25 Rocket 4.0 02:15:42 10° N 02:19:37 76° E 02:25:43 10° SSE
COSMOS 2441 4.3 02:17:24 10° NNE 02:22:18 80° WNW 02:24:29 33° SSW
Lacrosse 5 3.2 02:17:47 10° WNW 02:22:35 39° N 02:27:23 10° ENE
Cosmos 1666 Rocket 3.5 02:18:27 10° NNW 02:22:55 78° W 02:25:08 29° S
Cosmos 1553 Rocket 4.0 02:17:33 10° N 02:23:50 85° E 02:29:59 10° S
NOSS 3-1 (C) 4.1 02:21:19 10° NW 02:28:29 60° SW 02:37:07 10° SSE
ATLAS 3B R/B 3.0 02:27:38 10° NW 02:35:31 87° SW 02:43:19 10° SE
MSX 4.2 02:29:58 10° N 02:35:32 51° WNW 02:38:35 26° SW
MINOTAUR IV R/B 4.5 02:34:11 10° NNW 02:38:40 86° WSW 02:43:05 10° SSE
Cosmos 1656 Rocket 3.5 02:34:24 10° NNW 02:39:48 72° WSW 02:45:12 10° SSE
Cosmos 2026 Rocket 4.3 02:37:38 25° SW 02:41:12 52° WNW 02:47:26 10° N
Cosmos 1470 4.3 02:37:42 10° N 02:41:14 35° ENE 02:44:43 10° SE
IDEFIX/ARIANE 42P 3.4 02:37:30 10° N 02:42:13 36° WNW 02:44:41 23° WSW
Cosmos 1328 Rocket 3.5 02:41:11 27° SSW 02:43:36 76° WNW 02:48:02 10° N
Cosmos 1626 1.7 02:42:32 33° S 02:43:53 85° E 02:47:11 10° N
Gbstr 26 Del rocket 2.9 02:39:47 11° WNW 02:44:01 75° NNE 02:47:50 10° E
Cosmos 2369 Rocket 2.1 02:38:37 10° NNW 02:44:15 83° WSW 02:49:50 10° SSE
USA 308 3.0 02:42:30 25° W 02:44:27 58° NNW 02:48:20 10° ENE
Cosmos 2237 Rocket 3.3 02:41:27 19° W 02:44:43 33° NW 02:49:53 10° NNE
Cosmos 1066 Rocket 4.4 02:40:39 13° S 02:45:25 69° E 02:51:00 10° NNE
Cosmos 1092 Rocket 4.4 02:42:40 24° SW 02:46:04 47° WNW 02:52:02 10° N
CZ-2C R/B 3.3 02:43:13 10° N 02:48:25 60° WNW 02:51:58 22° SW
CZ-2D R/B 2.8 02:43:38 10° N 02:48:41 42° WNW 02:51:41 22° WSW
Cosmos 1151 Rocket 4.0 02:47:22 25° WSW 02:48:49 31° WNW 02:52:44 10° N
Cosmos 1975 3.3 02:45:38 10° NNW 02:49:13 37° W 02:50:23 29° SW
Cosmos 921 Rocket 3.5 02:48:29 27° WSW 02:50:28 47° WNW 02:54:45 10° N
SAR-Lupe-1 4.2 02:48:51 10° N 02:52:24 59° WNW 02:54:03 29° SW
Cosmos 1633 Rocket 3.3 02:48:17 10° NNW 02:52:29 47° W 02:55:02 21° SSW
Cosmos 2297 3.8 02:47:11 10° NW 02:52:48 57° WSW 02:58:24 10° S
USA 267 3.5 02:47:21 10° SSE 02:53:32 45° SW 02:59:45 10° WNW
AQUA 4.0 02:49:11 10° N 02:53:50 57° WNW 02:56:41 22° SW
SAR-Lupe-4 3.9 02:53:07 10° N 02:56:35 50° WNW 02:58:13 27° SW
Cosmos 44 4.3 02:53:50 10° NNW 02:58:46 49° NE 03:03:23 10° ESE
Resurs 1-4 Rocket 3.1 02:55:40 10° N 03:00:19 32° WNW 03:03:21 18° WSW
Cosmos 1766 3.1 03:00:22 10° NNW 03:04:01 60° W 03:07:19 12° S
Cosmos 494 Rocket 4.0 03:02:00 20° SW 03:05:35 67° WNW 03:10:42 10° NNE
Iridium 51 3.8 03:05:13 15° S 03:07:56 87° W 03:11:26 10° N
Meteor 2-4 Rocket 4.1 03:04:17 19° SW 03:08:05 48° WNW 03:13:36 10° N
Cosmos 1943 3.8 03:03:52 10° S 03:09:24 56° ESE 03:14:59 10° NE
FENGYUN 3A 4.1 03:05:17 10° N 03:10:26 45° WNW 03:14:21 17° SW
USA 290 4.0 03:11:23 10° WNW 03:13:01 16° W 03:13:01 16° W
Cosmos 1048 Rocket 4.0 03:09:34 16° SSW 03:13:50 76° WNW 03:19:05 10° NNE
Cosmos 2263 4.1 03:08:16 10° NNW 03:13:51 68° WSW 03:19:27 10° SSE
UNK 4.2 03:10:15 11° SSW 03:14:20 40° W 03:18:43 10° NNW
Thor Agena Rocket 4.3 03:09:41 10° NNE 03:14:37 51° E 03:19:34 10° S
CZ-2C R/B 2.9 03:15:17 10° NNE 03:20:27 65° ESE 03:25:30 10° S
H-2A R/B 4.3 03:17:41 10° NE 03:21:51 25° E 03:26:04 10° SSE
ADEOS II 3.1 03:19:51 10° N 03:24:26 31° WNW 03:28:17 13° WSW
PAYLOAD A 4.4 03:20:13 10° NNE 03:25:01 60° ESE 03:29:39 10° S
USA 306 4.5 03:22:25 10° S 03:25:16 20° SE 03:27:58 10° E
EO 1 Delta rocket 4.3 03:21:36 10° N 03:26:00 44° WNW 03:30:32 11° SW
Cosmos 883 Rocket 4.4 03:21:48 10° NNW 03:27:57 80° W 03:34:04 10° S
Cosmos 1707 2.6 03:28:00 10° S 03:31:41 87° E 03:35:24 10° N
Cosmos 1302 Rocket 4.0 03:27:08 10° NNW 03:32:21 89° WSW 03:37:33 10° SSE
IRS-1D 3.9 03:27:31 10° NNE 03:32:41 71° ESE 03:37:55 10° S
CZ-4 R/B 3.8 03:28:58 10° N 03:33:39 67° WNW 03:38:14 10° SSW
Cosmos 1110 Rocket 4.5 03:30:50 10° NW 03:35:43 39° WSW 03:40:36 10° S
Cosmos 1842 3.2 03:32:20 10° SSW 03:36:01 61° WNW 03:39:45 10° N
YAOGAN 6 2.4 03:34:52 10° NNE 03:38:11 85° ESE 03:41:29 10° SSW
ATLAS 5 CENTAUR R/B 3.6 03:35:18 10° WNW 03:38:32 16° WSW 03:42:07 10° SSW
Cosmos 2266 Rocket 4.0 03:33:23 10° SSW 03:39:20 62° WNW 03:45:21 10° N
Cosmos 1603 4.1 03:35:48 10° SSW 03:41:20 64° ESE 03:46:56 10° NNE
S3M 4.2 03:35:33 10° NNW 03:41:29 49° W 03:47:28 10° SSW
SL-16 R/B 3.1 03:36:50 11° WSW 03:41:45 36° NW 03:47:00 10° NNE
SL-08 ROCKET BODY 4.5 03:36:59 10° SSW 03:42:54 66° WNW 03:49:00 10° N
CZ-2C R/B 4.5 03:41:51 10° WSW 03:43:49 12° W 03:45:48 10° WNW
Cosmos 1452 Rocket 4.2 03:39:26 10° NW 03:44:04 32° WSW 03:48:40 10° SSW
ATLAS 2AS CENTAUR R/B 3.5 03:37:06 10° WSW 03:44:09 46° NNW 03:50:54 10° NE
ALOS 3.3 03:40:26 10° N 03:44:28 30° WNW 03:48:29 10° SW
Cosmos 1515 Rocket 4.2 03:40:34 10° SW 03:44:44 39° WNW 03:48:54 10° N
Cosmos 1869 Rocket 3.5 03:42:27 10° NNW 03:46:46 66° W 03:51:02 10° S
Envisat 3.2 03:44:21 10° N 03:49:20 58° WNW 03:54:19 10° SSW
Cosmos 1758 4.3 03:46:19 10° N 03:50:08 50° ENE 03:53:53 10° SSE
SL-16 R/B 3.8 03:46:20 10° SW 03:50:50 21° W 03:55:23 10° NW
USA 215 3.9 03:54:01 10° ENE 04:00:19 52° NNW 04:06:37 10° W
CZ-3 R/B 4.4 03:53:27 10° SW 04:10:47 25° S 04:18:07 10° SE
